Tracking 18852 objects as of 24-Nov-2017
HD Live streaming from Space Station
objects crossing your sky now

GORIZONT 22

Track GORIZONT 22 now!
GORIZONT 22 is classified as:


NORAD ID: 20953
Int'l Code: 1990-102A
Perigee: 35,736.5 km
Apogee: 35,803.2 km
Inclination: 15.0 °
Period: 1,434.9 minutes
Semi major axis: 42140 km
RCS: 3.5481 m2 (large)
Launch date: November 23, 1990
Source: Commonwealth of Independent States (former USSR) (CIS)
Launch site: TYURATAM MISSILE AND SPACE COMPLEX (TTMTR)
aabbcc
Your satellite tracking list
Your tracking list is empty




NASA's NSSDC Master Catalog

Two Line Element Set (TLE):
1 20953U 90102A   17327.76224407  .00000129  00000-0  00000+0 0  9994
2 20953  14.9842   3.8346 0007916 276.2003  91.9144  1.00357031 99046
Source of the keplerian elements: AFSPC